Location: *
(38.9555°S, 57.3572°E)
Time: 11:40:49
(UTC+00:00)

Daily predictions for brighter satellites

Satellite Brightness Start Highest point End
(mag) Time Altitude Azimuth Time Altitude Azimuth Time Altitude Azimuth
Cosmos 2219 3.8 13:27:05 10° N 13:32:19 39° ENE 13:37:38 10° SE
Cosmos 2266 Rocket 4.0 13:28:01 10° S 13:34:11 85° E 13:40:14 10° N
ASTEX 1 4.4 13:31:10 10° SSE 13:35:27 27° E 13:39:41 10° NE
Timation 2 Rocket 4.1 13:29:27 10° NNW 13:35:42 72° ENE 13:42:18 10° SSE
NOAA 6 4.5 13:31:53 10° SSE 13:36:54 44° E 13:41:53 10° N
CZ-4B R/B 3.8 13:33:06 10° S 13:37:00 49° WSW 13:40:40 10° NNW
YAOGAN 6 4.3 13:36:18 10° SE 13:38:29 15° E 13:40:39 10° NE
Lacrosse 5 3.1 13:34:42 10° SSW 13:38:50 24° SSE 13:42:57 10° E
Cosmos 1470 2.9 13:36:00 10° N 13:39:54 55° E 13:43:52 10° SSE
SKYMED 2 4.0 13:35:38 10° N 13:40:00 71° W 13:44:25 10° SSW
Aureole 3 Rocket 4.3 13:36:08 10° NE 13:40:01 23° E 13:43:10 10° SE
Meteor 2-5 Rocket 4.3 13:35:59 10° SSW 13:41:40 66° W 13:47:21 10° N
Cosmos 2292 Rocket 3.3 13:40:15 10° SSW 13:43:16 59° W 13:46:16 10° N
Cosmos 1892 Rocket 3.6 13:39:27 10° S 13:43:53 89° WNW 13:48:14 10° N
FALCON 9 DEB 3.6 13:40:54 10° NNW 13:44:16 49° NE 13:47:40 10° ESE
Lacrosse 4 Rocket 1.5 13:43:50 10° NNW 13:47:56 82° WSW 13:52:12 10° SSE
Cosmos 1455 Rocket 3.3 13:44:49 10° N 13:49:18 81° W 13:53:50 10° S
CZ-4B DEB 4.3 13:48:23 10° SSE 13:54:04 80° ENE 13:59:38 10° N
Cosmos 1626 Rocket 4.0 13:51:03 10° S 13:55:14 39° ESE 13:59:24 10° NNE
NOSS 0 Rocket 3.9 13:51:41 10° SSW 13:57:53 67° ESE 14:04:01 10° NNE
Envisat 3.3 13:58:03 10° SSE 14:03:00 45° E 14:07:51 10° N
H-2A R/B 2.6 13:59:12 10° SSE 14:03:04 77° ENE 14:06:49 10° N
Cosmos 1980 3.9 13:57:30 10° SSW 14:03:05 51° ESE 14:08:36 10° NE
Cosmos 773 Rocket 4.3 14:01:02 10° SSW 14:06:20 74° WNW 14:11:36 10° N
Cosmos 2219 Rocket 3.1 14:00:59 10° SSW 14:06:29 54° WNW 14:11:55 10° N
Helios 1A Rocket 4.4 14:05:07 16° ESE 14:06:45 19° E 14:09:44 10° NE
Cosmos 2297 Rocket 2.2 14:03:15 10° N 14:08:51 67° ENE 14:14:32 10° SSE
Cosmos 2228 4.5 14:07:22 10° NE 14:10:20 18° E 14:10:50 18° ESE
USA 215 3.3 14:04:33 10° ENE 14:10:57 59° SE 14:17:25 10° SW
H-2A R/B 4.1 14:09:53 10° S 14:13:41 35° WSW 14:17:35 10° NW
Cosmos 1953 2.4 14:09:49 10° N 14:13:51 57° E 14:17:55 10° SSE
BREEZE-M DEB (TANK) 4.1 14:11:46 10° WSW 14:18:50 31° S 14:20:33 21° SE
Cosmos 2237 Rocket 2.2 14:13:13 10° SSW 14:18:54 64° ESE 14:24:32 10° NNE
Cosmos 1908 4.2 14:17:15 10° NNE 14:20:37 28° E 14:21:41 24° ESE
Cosmos 1538 Rocket 4.1 14:16:17 10° SSW 14:21:44 84° WNW 14:27:08 10° NNE
CORIOLIS 4.3 14:17:56 10° SSE 14:23:13 51° E 14:28:26 10° N
Okean O Rocket 1.7 14:20:36 10° SSE 14:25:08 85° WSW 14:29:34 10° NNW
SJ 16-02 1.4 14:21:08 10° N 14:25:25 54° ENE 14:28:40 17° SSE
Meteor 1-16 Rocket 4.4 14:22:23 10° N 14:28:09 60° E 14:34:04 10° SSE
ARGOS Delta rocket 3.7 14:24:09 10° SSE 14:28:33 55° E 14:32:57 10° N
Meteor 2-16 Rocket 4.4 14:23:11 10° S 14:29:23 74° E 14:35:29 10° NNE
Cosmos 44 4.5 14:27:14 10° SW 14:31:46 43° WNW 14:36:01 10° N
COSMOS 2428 4.4 14:26:50 10° SW 14:32:03 36° WNW 14:37:12 10° N
Meteor 2-8 Rocket 4.4 14:28:48 10° N 14:34:49 67° E 14:40:54 10° SSE
Shenzhou-11 Module 1.9 14:33:23 10° W 14:35:47 50° SSW 14:35:47 50° SSW
SL-08 ROCKET BODY 4.4 14:33:24 10° S 14:39:12 54° E 14:44:58 10° NNE
Cosmos 1340 Rocket 3.9 14:35:47 10° NNW 14:39:34 45° WSW 14:43:25 10° S
Cosmos 1553 Rocket 4.0 14:35:05 10° N 14:41:24 89° W 14:47:55 10° S
Cosmos 1726 2.9 14:40:18 10° NNW 14:43:53 52° W 14:47:33 10° S
FengYun 1-2 T 4.3 14:41:36 11° SSE 14:47:03 56° E 14:52:36 10° N
SL-8 R/B 4.3 14:42:24 10° WSW 14:47:10 56° NW 14:51:12 14° NE
CZ-2C R/B 2.8 14:43:45 10° NE 14:48:39 44° ESE 14:53:41 10° S
Cosmos 2112 Rocket 4.2 14:44:43 10° S 14:49:52 48° ESE 14:53:07 21° NE
Cosmos 1602 Rocket 3.9 14:45:50 10° SSW 14:50:12 66° W 14:54:35 10° N
Cosmos 1745 Rocket 3.9 14:44:14 10° S 14:50:25 67° E 14:56:33 10° NNE
SMAP 3.5 14:46:27 10° S 14:51:08 63° WSW 14:55:44 10° NNW
Radarsat Rocket 4.3 14:45:29 10° S 14:51:17 65° WSW 14:57:19 10° NNW
SL-4 R/B 3.6 14:47:28 10° W 14:51:57 35° SSW 14:53:58 25° SSE
CZ-4B R/B 4.1 14:48:11 10° S 14:53:43 52° WSW 14:59:07 10° NW
Cosmos 2227 Rocket 2.6 14:48:10 10° NW 14:53:45 61° WSW 14:58:53 13° SSE
S3M 3.9 14:48:43 10° N 14:55:01 85° E 15:01:19 10° S
Cosmos 1606 Rocket 3.5 14:52:03 10° N 14:56:25 59° E 14:57:00 53° ESE
Cosmos 2082 3.6 14:52:22 10° NNW 14:58:03 83° ENE 15:01:23 27° SSE
Okean-O 3.8 15:01:18 29° NNE 15:01:18 29° NNE 15:03:48 10° N
Cosmos 990 Rocket 3.9 14:59:03 10° NNW 15:04:13 88° WSW 15:06:50 30° SSE
Cosmos 883 Rocket 4.5 14:59:17 10° N 15:05:34 63° E 15:11:21 13° SSE
SL-16 R/B 2.1 15:04:55 10° SSW 15:10:35 61° ESE 15:11:33 53° ENE
Cosmos 1680 Rocket 3.5 15:09:47 10° SSW 15:15:08 85° WNW 15:20:27 10° NNE
Cosmos 158 Rocket 3.9 15:14:40 10° SSW 15:19:49 81° WNW 15:22:48 24° NNE
Cosmos 1898 Rocket 3.7 15:15:07 10° NNW 15:20:17 68° WSW 15:22:26 36° S
Lacrosse 5 1.9 15:17:08 10° SW 15:22:17 76° NW 15:23:08 60° NNE
DMSP B5D2-2 4.0 15:17:02 10° NNE 15:22:17 89° ESE 15:27:39 10° SSW
Cosmos 1726 Rocket 4.0 15:19:13 10° N 15:22:38 53° NNW 15:22:38 53° NNW
IRS-1C Rocket 4.3 15:21:21 26° S 15:24:23 72° WSW 15:29:39 10° NNW
MOS 1 Rocket 4.2 15:22:07 10° N 15:27:28 56° W 15:32:47 10° SSW
Cosmos 1709 Rocket 3.8 15:27:55 10° S 15:34:11 82° E 15:40:26 10° N
GEOS 3 Rocket 3.9 15:41:24 62° NNW 15:41:50 65° WNW 15:47:00 10° SW
Cosmos 1937 Rocket 4.3 15:46:54 10° NW 15:51:56 48° WSW 15:52:00 48° WSW
USA 215 4.4 15:48:31 12° NNE 15:54:05 38° NW 16:00:08 10° WSW
SJ 16-02 4.1 16:02:05 10° W 16:04:22 14° WSW 16:05:42 12° SW
